Retour au catalogue

STARLINK-37253

ActifCommunicationsSSO
NORAD 68606·PAYLOAD·🇺🇸 United States

Lancé Apr 5, 2026 depuis Vandenberg Space Force Base

Loading…

Prochains Passages (prochaines 24 heures)

TLE

FraisSource: CelesTrak SupGP

Époque: Sep 14, 2026, 21:14 UTC

1 68606C 26073E   26257.88520833  .00076538  00000+0  23765-2 0  2573
2 68606  97.2852  96.0266 0001792  96.4487 246.4035 15.33391282    19

Suivez STARLINK-37253 en temps réel avec AllMySat

Download on the App Store